TimeEST,TemperatureF,Dew PointF,Humidity,Sea Level PressureIn,VisibilityMPH,Wind Direction,Wind SpeedMPH,Gust SpeedMPH,PrecipitationIn,Events,Conditions,WindDirDegrees,DateUTC
12:17 AM,39.2,37.4,93,29.89,4.0,WSW,6.9,-,0.01,Rain,Rain,250,2013-12-30 05:17:00
12:28 AM,39.2,37.4,93,29.89,4.0,WSW,5.8,-,0.02,Rain,Light Rain,250,2013-12-30 05:28:00
12:42 AM,39.2,37.4,93,29.89,3.0,WSW,4.6,-,0.04,Rain,Rain,250,2013-12-30 05:42:00
12:53 AM,39.9,37.0,89,29.89,4.0,West,3.5,-,0.05,Rain,Light Rain,270,2013-12-30 05:53:00
1:30 AM,39.2,37.4,93,29.89,4.0,WSW,5.8,-,0.03,Rain,Light Rain,240,2013-12-30 06:30:00
1:44 AM,39.2,37.4,93,29.89,6.0,West,9.2,-,0.04,Rain,Light Rain,280,2013-12-30 06:44:00
1:53 AM,39.0,37.0,93,29.90,5.0,West,6.9,-,0.05,Rain,Rain,260,2013-12-30 06:53:00
2:02 AM,39.2,35.6,87,29.90,6.0,West,9.2,-,0.01,Rain,Light Rain,260,2013-12-30 07:02:00
2:18 AM,39.2,35.6,87,29.90,10.0,West,8.1,-,0.01,,Overcast,280,2013-12-30 07:18:00
2:53 AM,37.0,34.0,89,29.94,6.0,WNW,10.4,-,0.02,Rain,Light Rain,300,2013-12-30 07:53:00
3:01 AM,37.4,33.8,87,29.93,5.0,WNW,10.4,-,0.00,Rain,Light Rain,290,2013-12-30 08:01:00
3:25 AM,37.4,33.8,87,29.94,5.0,WNW,9.2,-,0.00,Rain,Light Rain,290,2013-12-30 08:25:00
3:53 AM,36.0,34.0,93,29.96,4.0,WNW,10.4,-,0.00,Rain,Light Rain,300,2013-12-30 08:53:00
4:04 AM,35.6,33.8,93,29.95,5.0,WNW,10.4,-,0.00,Rain,Light Rain,290,2013-12-30 09:04:00
4:13 AM,35.6,33.8,93,29.96,5.0,WNW,11.5,-,0.00,Rain,Light Rain,290,2013-12-30 09:13:00
4:18 AM,35.6,32.0,87,29.96,6.0,West,8.1,17.3,0.00,Rain,Light Rain,280,2013-12-30 09:18:00
4:27 AM,35.6,32.0,87,29.97,5.0,WNW,10.4,17.3,0.00,Rain,Light Rain,290,2013-12-30 09:27:00
4:53 AM,35.1,30.9,85,29.99,8.0,West,9.2,21.9,0.00,,Overcast,280,2013-12-30 09:53:00
5:10 AM,35.6,32.0,87,29.99,8.0,West,8.1,-,N/A,,Overcast,270,2013-12-30 10:10:00
5:53 AM,35.1,30.9,85,30.02,10.0,West,4.6,-,N/A,,Overcast,280,2013-12-30 10:53:00
6:53 AM,34.0,28.9,82,30.05,10.0,WNW,12.7,23.0,0.00,,Overcast,300,2013-12-30 11:53:00
7:22 AM,33.8,28.4,81,30.06,10.0,WNW,6.9,-,N/A,,Overcast,300,2013-12-30 12:22:00
7:53 AM,32.0,28.0,85,30.09,10.0,WNW,9.2,-,N/A,,Overcast,290,2013-12-30 12:53:00
8:53 AM,32.0,28.0,85,30.12,10.0,West,8.1,-,0.00,,Overcast,280,2013-12-30 13:53:00
9:06 AM,32.0,26.6,80,30.11,10.0,West,10.4,-,N/A,,Overcast,270,2013-12-30 14:06:00
9:53 AM,30.9,27.0,85,30.14,8.0,West,10.4,-,0.01,Snow,Light Snow,270,2013-12-30 14:53:00
10:53 AM,30.9,24.1,76,30.16,10.0,West,10.4,-,N/A,,Overcast,260,2013-12-30 15:53:00
11:00 AM,30.2,24.8,80,30.15,10.0,West,6.9,-,N/A,,Overcast,270,2013-12-30 16:00:00
11:53 AM,30.0,24.1,79,30.15,10.0,WNW,6.9,-,N/A,,Overcast,290,2013-12-30 16:53:00
12:25 PM,28.4,24.8,86,30.13,10.0,NW,13.8,19.6,0.00,,Overcast,320,2013-12-30 17:25:00
12:41 PM,28.4,23.0,80,30.13,10.0,NW,11.5,-,0.00,,Overcast,320,2013-12-30 17:41:00
12:53 PM,28.9,23.0,78,30.15,10.0,NW,9.2,-,0.00,,Overcast,310,2013-12-30 17:53:00
1:53 PM,30.0,19.9,66,30.15,10.0,WNW,10.4,-,N/A,,Overcast,290,2013-12-30 18:53:00
2:53 PM,28.0,21.9,78,30.15,9.0,NNW,6.9,-,0.00,Snow,Light Snow,340,2013-12-30 19:53:00
3:53 PM,27.0,23.0,85,30.16,10.0,North,4.6,-,0.00,,Overcast,10,2013-12-30 20:53:00
4:48 PM,26.6,23.0,86,30.14,9.0,North,5.8,-,0.00,,Overcast,10,2013-12-30 21:48:00
4:53 PM,27.0,21.9,81,30.16,8.0,NNE,4.6,-,0.00,,Overcast,20,2013-12-30 21:53:00
5:16 PM,26.6,21.2,80,30.14,6.0,NNE,5.8,-,0.00,Snow,Light Snow,30,2013-12-30 22:16:00
5:53 PM,26.1,21.9,84,30.16,10.0,NNE,4.6,-,0.00,,Overcast,30,2013-12-30 22:53:00
6:53 PM,26.1,21.9,84,30.18,9.0,Calm,Calm,-,N/A,,Overcast,0,2013-12-30 23:53:00
7:00 PM,26.6,21.2,80,30.15,10.0,NNE,3.5,-,N/A,,Overcast,30,2013-12-31 00:00:00
7:12 PM,26.6,21.2,80,30.16,10.0,NNW,3.5,-,N/A,,Overcast,330,2013-12-31 00:12:00
7:30 PM,26.6,21.2,80,30.16,10.0,Calm,Calm,-,0.00,,Overcast,0,2013-12-31 00:30:00
7:53 PM,27.0,21.9,81,30.19,10.0,Calm,Calm,-,0.00,,Overcast,0,2013-12-31 00:53:00
8:53 PM,27.0,21.9,81,30.18,10.0,Calm,Calm,-,N/A,,Overcast,0,2013-12-31 01:53:00
9:53 PM,27.0,23.0,85,30.17,10.0,SSE,3.5,-,N/A,,Overcast,160,2013-12-31 02:53:00
10:53 PM,27.0,23.0,85,30.16,10.0,Calm,Calm,-,N/A,,Overcast,0,2013-12-31 03:53:00
11:53 PM,28.0,23.0,81,30.15,10.0,Calm,Calm,-,N/A,,Overcast,0,2013-12-31 04:53:00